[[{"header":{"parameterUnit":"m.s-1","parameterCategory":1,"la1":30.2991,"la2":30.254,"lo1":-89.0895,"lo2":-89.0444,"dy":0.0017,"dx":0.0017,"nx":28,"ny":28,"refTime":"2025-12-30T09:00:00:Z","depth":0,"parameterNumber":2,"parameterNumberName":"U-component_of_WINDS"},"data":[0,0,0,0,0,0,0,0,0,0,0,0,0,0,0,0,0,0,0,0,0,0,0,0,0,0,0,0,0,0,0,0,0,0,0,0,0,0,0,0,0,0,0,0,0,0,0,0,0,0,0,0,0,0,0,0,0,0,4.0793,4.0794,0,4.092,4.0921,4.0923,4.0874,4.0871,4.0868,4.0865,4.0997,4.1003,4.1009,0,0,0,0,0,0,0,0,0,0,0,0,0,4.0507,4.0513,4.0792,4.0794,4.0796,4.092,4.0921,4.0923,4.0874,4.0871,4.0867,4.0864,4.0994,4.1002,4.1009,0,0,0,0,0,0,0,0,0,0,0,0,0,4.0633,4.0514,4.0792,4.0786,4.0787,4.0919,4.0922,4.0924,4.0875,4.0871,4.0866,4.0862,4.0992,4.1001,4.101,4.1157,0,0,4.1039,4.1043,0,0,0,0,0,0,0,0,4.0625,4.0643,4.0785,4.0787,4.0788,4.0876,4.0869,4.1002,4.0876,4.0842,4.0865,4.086,4.096,4.0972,4.1006,4.1163,4.1168,4.104,4.1045,4.105,4.1052,0,0,0,0,0,0,0,4.0617,4.0637,4.0843,4.0788,4.0789,4.0777,4.079,4.0894,4.0924,4.0844,4.0841,4.0857,4.096,4.0997,4.1008,4.117,4.104,4.1048,4.1054,4.1057,4.1453,4.1458,0,0,0,0,0,0,4.0608,4.063,4.0839,4.0847,4.0694,4.0786,4.08,4.0852,4.0923,4.0929,4.086,4.0854,4.0983,4.0997,4.1013,4.1188,4.1049,4.1058,4.1064,4.1448,4.1454,4.1459,0,0,0,0,0,0,4.0602,4.0627,4.0834,4.0738,4.0763,4.0796,4.0854,4.0857,4.0894,4.0935,4.094,4.0892,4.098,4.1,4.1121,4.1191,4.1062,4.1071,4.1442,4.145,4.1457,4.1539,0,0,0,0,0,0,4.0594,4.0625,4.0681,4.0739,4.0768,4.094,4.0859,4.0863,4.091,4.0903,4.0966,4.0973,4.0978,4.1107,4.113,4.1202,4.1078,4.1436,4.1446,4.1454,4.153,4.1548,4.1564,0,0,0,0,0,4.0584,4.0699,4.0684,4.0709,4.0839,4.0944,4.0961,4.0964,4.0916,4.0972,4.0999,4.0971,4.118,4.112,4.1146,4.1221,4.1432,4.1443,4.1454,4.1523,4.1545,4.1564,0,0,0,0,0,0,4.0649,4.0707,4.069,4.0828,4.0882,4.0935,4.1007,4.0988,4.1056,4.1047,4.1048,4.1063,4.1188,4.1217,4.1149,4.1366,4.1299,4.1315,4.1342,4.1364,4.138,4.137,4.1086,0,0,0,0,0,4.0679,4.0759,4.0806,4.0923,4.0951,4.0974,4.102,4.1018,4.1074,4.1096,4.1131,4.1186,4.1264,4.1316,4.139,4.1535,4.1547,4.1599,4.1616,4.163,4.1644,4.1721,4.1745,4.1496,4.1495,4.1495,0,0,4.0742,4.0784,4.0835,4.0937,4.0978,4.1061,4.0994,4.1084,4.1146,4.111,4.1226,4.1254,4.1316,4.1449,4.151,4.1477,4.1716,4.1644,4.1654,4.1661,4.1735,4.1759,4.178,4.1503,4.1502,4.1501,0,0,4.09,4.094,4.1042,4.1084,4.1147,4.1162,4.1186,4.1243,4.126,4.1377,4.1351,4.1425,4.156,4.1604,4.1645,4.1819,4.1796,4.1844,4.1931,4.2007,4.2026,4.2044,4.2105,4.2127,4.1858,4.1858,4.1858,0,4.0971,4.1095,4.1096,4.1189,4.1235,4.1206,4.1308,4.1349,4.1434,4.1466,4.1428,4.1596,4.1636,4.1778,4.1821,4.1855,4.1883,4.1836,4.2023,4.2041,4.2057,4.2116,4.2139,4.1863,4.1863,4.1862,4.1862,0,4.1178,4.1265,4.1339,4.142,4.1474,4.1572,4.1588,4.1643,4.1636,4.1655,4.1774,4.1821,4.1903,4.1937,4.1932,4.208,4.2057,4.2022,4.1954,4.2086,4.2141,4.2164,4.1871,4.1869,4.1867,4.1866,0,0,4.138,4.1461,4.1488,4.1524,4.1591,4.1658,4.1754,4.1834,4.1881,4.194,4.202,4.2135,4.2102,4.2148,4.2148,4.2214,4.2348,4.2171,4.2172,4.2201,4.2513,4.2538,4.2564,4.2334,4.2338,4.2341,4.2507,0,4.1542,4.171,4.1714,4.1868,4.1947,4.1921,4.2004,4.2054,4.2075,4.2145,4.2168,4.2248,4.22,4.2227,4.2292,4.2318,4.2411,4.2307,4.2408,4.2411,4.2392,4.2593,4.262,4.2774,4.2529,4.2532,4.2535,0,4.1754,4.1819,4.198,4.2035,4.2068,4.2143,4.2217,4.2285,4.2341,4.2351,4.2403,4.2392,4.249,4.242,4.2555,4.2484,4.2526,4.2545,4.2551,4.256,4.248,4.2606,4.2824,4.2846,4.2569,4.2566,4.2564,0,4.1884,4.2012,4.2124,4.2156,4.2223,4.2276,4.2307,4.2359,4.2407,4.2472,4.2502,4.2578,4.2619,4.2678,4.2689,4.2637,4.2824,4.2754,4.2834,4.2834,4.2874,4.2871,4.31,4.2903,4.2903,4.2902,4.2902,0,4.2064,4.2163,4.2183,4.2253,4.2363,4.2367,4.2477,4.2503,4.2549,4.2623,4.2606,4.2676,4.2686,4.2758,4.2767,4.2877,4.2896,4.2907,4.2908,4.2908,4.2906,4.2934,4.2923,4.2908,4.2907,4.2906,4.2905,0,4.2227,4.2244,4.2365,4.2419,4.2434,4.2514,4.2559,4.2626,4.2644,4.2738,4.276,4.2789,4.2873,4.289,4.299,4.2996,4.3126,4.3117,4.3107,4.3106,4.3184,4.3176,4.3439,4.3473,4.3254,4.3256,4.3258,0,4.234,4.2416,4.2477,4.2525,4.2558,4.2636,4.2684,4.2691,4.2742,4.2812,4.287,4.2952,4.3018,4.3154,4.3184,4.326,4.3252,4.3339,4.3264,4.3261,4.3252,4.3247,4.3254,4.3353,4.3356,4.3357,4.3359,0,4.2539,4.2544,4.2614,4.2688,4.2746,4.2804,4.286,4.29,4.2914,4.2973,4.3058,4.3109,4.3211,4.3293,4.3369,4.34,4.3382,4.3383,4.3405,4.3405,4.3396,4.3401,4.3145,4.3376,4.3375,4.3373,4.3372,4.3372,4.268,4.2746,4.2799,4.2877,4.292,4.2972,4.3036,4.3062,4.3134,4.3216,4.3216,4.331,4.3364,4.3464,4.35,4.3573,4.3546,4.3579,4.3587,4.3595,4.3601,4.3385,4.3588,4.3587,4.3587,4.3586,4.3586,0,4.2877,4.291,4.2982,4.3059,4.3121,4.3099,4.3159,4.3212,4.3294,4.3346,4.3411,4.3509,4.3588,4.3625,4.3703,4.3754,4.3748,4.3774,4.377,4.3778,4.3622,4.3594,4.3778,4.3778,4.3778,4.3778,4.3778,4.3778,4.2987,4.3096,4.3107,4.3238,4.3269,4.336,4.3396,4.3444,4.3485,4.3595,4.3661,4.3683,4.3729,4.381,4.3882,4.389,4.3919,4.395,4.3955,4.3808,4.3789,4.377,4.3744,4.3956,4.3957,4.4104,4.4105,4.4106]},{"header":{"parameterUnit":"m.s-1","parameterCategory":1,"la1":30.2991,"la2":30.254,"lo1":-89.0895,"lo2":-89.0444,"dy":0.0017,"dx":0.0017,"nx":28,"ny":28,"refTime":"2025-12-30T09:00:00:Z","depth":0,"parameterNumber":3,"parameterNumberName":"V-component_of_WINDS"},"data":[0,0,0,0,0,0,0,0,0,0,0,0,0,0,0,0,0,0,0,0,0,0,0,0,0,0,0,0,0,0,0,0,0,0,0,0,0,0,0,0,0,0,0,0,0,0,0,0,0,0,0,0,0,0,0,0,0,0,-0.0515,-0.0516,0,-0.0583,-0.0584,-0.0585,-0.0616,-0.0615,-0.0615,-0.0615,-0.0685,-0.0687,-0.0689,0,0,0,0,0,0,0,0,0,0,0,0,0,-0.0411,-0.0413,-0.0515,-0.0516,-0.0516,-0.0583,-0.0584,-0.0585,-0.0616,-0.0615,-0.0615,-0.0615,-0.0684,-0.0686,-0.0689,0,0,0,0,0,0,0,0,0,0,0,0,0,-0.0466,-0.0414,-0.0515,-0.054,-0.0543,-0.0583,-0.0584,-0.0585,-0.0616,-0.0615,-0.0615,-0.0615,-0.0683,-0.0686,-0.0689,-0.0709,0,0,-0.0698,-0.0699,0,0,0,0,0,0,0,0,-0.0463,-0.0469,-0.0535,-0.0538,-0.0542,-0.0591,-0.0573,-0.0627,-0.0616,-0.0588,-0.0615,-0.0615,-0.0654,-0.0659,-0.0672,-0.0712,-0.0715,-0.0698,-0.07,-0.0701,-0.0702,0,0,0,0,0,0,0,-0.0459,-0.0467,-0.0542,-0.0536,-0.054,-0.0548,-0.0555,-0.0583,-0.062,-0.059,-0.0593,-0.06,-0.0655,-0.0669,-0.0674,-0.0716,-0.0698,-0.0701,-0.0702,-0.0704,-0.0777,-0.0777,0,0,0,0,0,0,-0.0451,-0.0463,-0.054,-0.0544,-0.0501,-0.055,-0.0558,-0.0575,-0.062,-0.0627,-0.06,-0.0602,-0.0664,-0.067,-0.0676,-0.0703,-0.0701,-0.0704,-0.0705,-0.0777,-0.0777,-0.0778,0,0,0,0,0,0,-0.0449,-0.0457,-0.0537,-0.0504,-0.0515,-0.0552,-0.057,-0.0576,-0.059,-0.0628,-0.0635,-0.0608,-0.0664,-0.0672,-0.0701,-0.0706,-0.0705,-0.0708,-0.0777,-0.0777,-0.0777,-0.0756,0,0,0,0,0,0,-0.0445,-0.0456,-0.0464,-0.0504,-0.0517,-0.056,-0.0571,-0.0578,-0.0595,-0.0597,-0.0637,-0.0643,-0.0665,-0.0696,-0.0704,-0.071,-0.071,-0.0776,-0.0777,-0.0777,-0.0757,-0.0756,-0.0755,0,0,0,0,0,-0.0442,-0.0455,-0.0464,-0.0473,-0.0527,-0.056,-0.0567,-0.0592,-0.0595,-0.0604,-0.0628,-0.0642,-0.0704,-0.0699,-0.0708,-0.0715,-0.0776,-0.0777,-0.0777,-0.0757,-0.0756,-0.0755,0,0,0,0,0,0,-0.0415,-0.0461,-0.0471,-0.0498,-0.0525,-0.0565,-0.0576,-0.059,-0.0617,-0.0618,-0.0648,-0.0656,-0.0682,-0.0701,-0.0695,-0.0737,-0.0741,-0.0744,-0.0723,-0.0723,-0.0722,-0.0717,-0.0712,0,0,0,0,0,-0.0412,-0.0435,-0.0474,-0.0494,-0.0507,-0.0539,-0.0555,-0.0572,-0.0601,-0.0612,-0.0639,-0.0666,-0.0692,-0.0708,-0.0734,-0.076,-0.0769,-0.0769,-0.0768,-0.0767,-0.0769,-0.0785,-0.0785,-0.0779,-0.0779,-0.0779,0,0,-0.0406,-0.0434,-0.0447,-0.0489,-0.0512,-0.0535,-0.0549,-0.0573,-0.059,-0.0616,-0.0645,-0.0665,-0.0698,-0.0725,-0.0738,-0.0742,-0.0773,-0.0768,-0.0767,-0.0769,-0.0785,-0.0786,-0.0786,-0.078,-0.078,-0.0779,0,0,-0.0408,-0.0431,-0.0451,-0.0474,-0.0508,-0.053,-0.0534,-0.0573,-0.0587,-0.0616,-0.0636,-0.0658,-0.0702,-0.0725,-0.0742,-0.0753,-0.0767,-0.0761,-0.0757,-0.0772,-0.0772,-0.0773,-0.0777,-0.0778,-0.0762,-0.0762,-0.0762,0,-0.0397,-0.0432,-0.0459,-0.0482,-0.0501,-0.0525,-0.0545,-0.0566,-0.0607,-0.0619,-0.0622,-0.0679,-0.0702,-0.0736,-0.0738,-0.0751,-0.0758,-0.0756,-0.077,-0.0771,-0.0772,-0.0776,-0.0778,-0.0761,-0.0761,-0.0761,-0.0761,0,-0.0417,-0.0442,-0.0453,-0.0493,-0.0512,-0.0534,-0.0564,-0.0581,-0.0596,-0.0618,-0.0648,-0.0677,-0.071,-0.0719,-0.0734,-0.0755,-0.0756,-0.0764,-0.0769,-0.0771,-0.0776,-0.0778,-0.076,-0.076,-0.076,-0.0761,0,0,-0.0403,-0.0458,-0.0461,-0.048,-0.052,-0.0539,-0.0562,-0.0595,-0.0609,-0.0636,-0.0656,-0.0693,-0.0702,-0.0721,-0.0739,-0.0752,-0.076,-0.0759,-0.0761,-0.0759,-0.0785,-0.0779,-0.0781,-0.077,-0.077,-0.077,-0.0783,0,-0.0411,-0.0453,-0.0478,-0.051,-0.0533,-0.0557,-0.0577,-0.0604,-0.0625,-0.0648,-0.0671,-0.0697,-0.0705,-0.0717,-0.0731,-0.0756,-0.0766,-0.0756,-0.0789,-0.079,-0.078,-0.0783,-0.0776,-0.0786,-0.0785,-0.0785,-0.0785,0,-0.0425,-0.0452,-0.0487,-0.0525,-0.0535,-0.0553,-0.0585,-0.0607,-0.0638,-0.0652,-0.0674,-0.0693,-0.0718,-0.0722,-0.0758,-0.075,-0.0765,-0.078,-0.0781,-0.0785,-0.0788,-0.0788,-0.079,-0.0792,-0.0788,-0.0788,-0.0788,0,-0.0412,-0.0458,-0.0484,-0.0499,-0.0544,-0.0556,-0.0575,-0.0606,-0.0624,-0.0652,-0.0664,-0.0695,-0.0711,-0.0735,-0.0761,-0.0761,-0.0795,-0.08,-0.0807,-0.0807,-0.0813,-0.0813,-0.0819,-0.0823,-0.0823,-0.0823,-0.0823,0,-0.0418,-0.0438,-0.0479,-0.0495,-0.0519,-0.0547,-0.057,-0.0591,-0.0619,-0.064,-0.0663,-0.0682,-0.0716,-0.0739,-0.076,-0.0787,-0.0794,-0.0807,-0.0812,-0.0805,-0.0803,-0.0815,-0.0815,-0.0823,-0.0823,-0.0823,-0.0823,0,-0.0407,-0.0435,-0.0466,-0.0506,-0.0517,-0.0532,-0.0567,-0.0584,-0.0606,-0.0633,-0.0641,-0.0675,-0.0705,-0.0733,-0.0772,-0.0786,-0.0813,-0.082,-0.0803,-0.0806,-0.0812,-0.0811,-0.0826,-0.083,-0.083,-0.083,-0.083,0,-0.0409,-0.0425,-0.0467,-0.0483,-0.0502,-0.0527,-0.0546,-0.0575,-0.0593,-0.0631,-0.0643,-0.0674,-0.07,-0.0746,-0.0775,-0.0805,-0.0813,-0.0817,-0.0818,-0.0811,-0.0814,-0.0813,-0.0815,-0.0816,-0.0816,-0.0815,-0.0815,0,-0.041,-0.0423,-0.0449,-0.048,-0.0502,-0.0527,-0.0554,-0.0566,-0.06,-0.062,-0.065,-0.067,-0.0711,-0.0741,-0.0775,-0.0795,-0.0811,-0.0815,-0.0818,-0.0811,-0.08,-0.0807,-0.0801,-0.0814,-0.0814,-0.0814,-0.0814,-0.0814,-0.0406,-0.0422,-0.0454,-0.0482,-0.0505,-0.053,-0.0548,-0.0572,-0.0598,-0.0633,-0.0649,-0.0679,-0.0711,-0.0758,-0.0778,-0.0803,-0.0807,-0.0812,-0.0813,-0.0814,-0.0812,-0.0796,-0.0809,-0.0809,-0.0809,-0.0809,-0.0809,0,-0.0408,-0.043,-0.0456,-0.0493,-0.0515,-0.0528,-0.0558,-0.0576,-0.0603,-0.0631,-0.0656,-0.0692,-0.0722,-0.0753,-0.0785,-0.0799,-0.0807,-0.0806,-0.0806,-0.081,-0.0807,-0.0801,-0.0799,-0.0799,-0.0799,-0.0799,-0.0799,-0.0799,-0.0412,-0.044,-0.0457,-0.0496,-0.0518,-0.0548,-0.0564,-0.0587,-0.061,-0.0648,-0.0673,-0.0693,-0.0723,-0.0758,-0.0786,-0.0795,-0.0805,-0.0803,-0.0813,-0.081,-0.081,-0.0811,-0.0805,-0.0805,-0.0805,-0.0815,-0.0815,-0.0815]}]]